User: anonymous   Login
Location: Vibo Valentia
(38.6670°N, 16.1000°E)
Time: 18:26:21
(UTC+02:00)
Language:

STARLINK-1353 - Orbit

View from above orbital plane
View from above orbital plane
View from above satellite
View from above satellite

Ground track
Ground track

The orbit data is extracted from the following two-line orbital elements,

1 45537U 20025G   20225.48180082  .00001484  00000-0  10485-3 0  9993
2 45537  53.0031 240.5782 0002359 113.8887 246.2350 15.11156805 17802
Epoch (UTC): 12 August 2020 11:33:47
Eccentricity: 0.0002359
inclination: 53.0031°
perigee height: 531 km
apogee height: 534 km
right ascension of ascending node: 240.5782°
argument of perigee: 113.8887°
revolutions per day: 15.11156805
mean anomaly at epoch: 246.2350°
orbit number at epoch: 1780

The dashed part of the orbit path shows where the satellite is in the earth's shadow,  

DLR